User: anonymous   Login
Location: Betra
(48.4113°N, 8.6634°E)
Time: 16:38:48
(UTC+00:00)
Language:

Aureole 3 - Orbit

View from above orbital plane
View from above orbital plane
View from above satellite
View from above satellite

Ground track
Ground track

The orbit data is extracted from the following two-line orbital elements,

1 12848U 81094A   24202.19293119  .00006525  00000-0  34647-3 0  9995
2 12848  82.4748 195.8594 0523354 230.1743 125.2285 14.42222956159132
Epoch (UTC): 20 July 2024 04:37:49
Eccentricity: 0.0523354
inclination: 82.4748°
perigee height: 378 km
apogee height: 1124 km
right ascension of ascending node: 195.8594°
argument of perigee: 230.1743°
revolutions per day: 14.42222956
mean anomaly at epoch: 125.2285°
orbit number at epoch: 15913

The dashed part of the orbit path shows where the satellite is in the earth's shadow,  

DLR